Liberal, KS

6:29 PM CDT on June 25, 2017 (GMT -0500)
Liberal Municipal

Weather History for KLBL - October, 2011

Change the Weather History Date:

Thursday, October 13, 2011

  Actual Average Record
Temperature  
Mean Temperature 58 °F -  
Max Temperature 78 °F 76 °F 92 °F (1968)
Min Temperature 39 °F 43 °F 28 °F (2001)
Degree Days  
Heating Degree Days 6    
Growing Degree Days 8 (Base 50)    
Moisture  
Dew Point 35 °F    
Average Humidity 48    
Maximum Humidity 76    
Minimum Humidity 22    
Precipitation  
Precipitation 0.00 in - - ()
Sea Level Pressure  
Sea Level Pressure 30.05 in    
Wind  
Wind Speed 10 mph (WSW)    
Max Wind Speed 17 mph    
Max Gust Speed 26 mph    
Visibility 10 miles    
Events      
Averages and records for this station are not official NWS values.
T = Trace of Precipitation, MM = Missing Value Source: NWS Daily Summary

Daily Weather History Graph

Daily Weather History Graph

Search for Another Location

Airport or City:

Trip Planner

Search our weather history database for the weather conditions in past years. The results will help you decide how hot, cold, wet, or windy it might be!

Date:

Astronomy

Oct. 13, 2011 Rise Set
Actual Time 7:49 AM CDT 7:10 PM CDT
Civil Twilight 7:23 AM CDT 7:36 PM CDT
Nautical Twilight 6:53 AM CDT 8:06 PM CDT
Astronomical Twilight 6:23 AM CDT 8:36 PM CDT
Moon 7:51 PM CDT (10/13) 9:19 AM CDT (10/13)
Length of Visible Light 12h 12m
Length of Day
11h 20m
Full, 98% of the Moon is Illuminated
Oct 13
Full
Oct 19
Last Quarter
Oct 26
New
Nov 2
First Quarter
Nov 10
Full

Hourly Weather History & Observations

Time (CDT) Temp. Windchill Dew Point Humidity Pressure Visibility Wind Dir Wind Speed Gust Speed Precip Events Conditions
12:15 AM 44.6 °F 39.2 °F 30.2 °F 57% 30.09 in 10.0 mi WNW 10.4 mph - N/A   Clear
12:35 AM 44.6 °F 40.7 °F 32.0 °F 61% 30.08 in 10.0 mi NW 6.9 mph - N/A   Clear
12:55 AM 42.8 °F 37.5 °F 30.2 °F 61% 30.09 in 10.0 mi West 9.2 mph - N/A   Clear
1:15 AM 44.6 °F 39.2 °F 33.8 °F 66% 30.09 in 10.0 mi West 10.4 mph - N/A   Clear
1:35 AM 44.6 °F 39.2 °F 33.8 °F 66% 30.09 in 10.0 mi WNW 10.4 mph - N/A   Clear
1:55 AM 44.6 °F 39.7 °F 32.0 °F 61% 30.10 in 10.0 mi West 9.2 mph - N/A   Clear
2:15 AM 42.8 °F 37.0 °F 33.8 °F 70% 30.10 in 10.0 mi West 10.4 mph - N/A   Clear
2:35 AM 42.8 °F 37.5 °F 33.8 °F 70% 30.10 in 10.0 mi West 9.2 mph - N/A   Clear
2:55 AM 44.6 °F 39.2 °F 33.8 °F 66% 30.10 in 10.0 mi WNW 10.4 mph - N/A   Clear
3:15 AM 44.6 °F 39.2 °F 33.8 °F 66% 30.10 in 10.0 mi West 10.4 mph - N/A   Clear
3:35 AM 42.8 °F 37.5 °F 33.8 °F 70% 30.10 in 10.0 mi West 9.2 mph - N/A   Clear
3:55 AM 42.8 °F 37.5 °F 33.8 °F 70% 30.10 in 10.0 mi WNW 9.2 mph - N/A   Clear
4:15 AM 42.8 °F 37.5 °F 33.8 °F 70% 30.10 in 10.0 mi WNW 9.2 mph - N/A   Clear
4:35 AM 42.8 °F 38.0 °F 32.0 °F 66% 30.09 in 10.0 mi WNW 8.1 mph - N/A   Clear
4:55 AM 41.0 °F 35.8 °F 33.8 °F 76% 30.09 in 10.0 mi WNW 8.1 mph - N/A   Clear
5:15 AM 42.8 °F 38.0 °F 33.8 °F 70% 30.09 in 10.0 mi WNW 8.1 mph - N/A   Clear
5:35 AM 42.8 °F 38.0 °F 33.8 °F 70% 30.09 in 10.0 mi West 8.1 mph - N/A   Clear
5:55 AM 41.0 °F 36.4 °F 32.0 °F 70% 30.09 in 10.0 mi West 6.9 mph - N/A   Clear
6:15 AM 39.2 °F 33.6 °F 32.0 °F 75% 30.09 in 10.0 mi WNW 8.1 mph - N/A   Clear
6:35 AM 41.0 °F 35.2 °F 33.8 °F 76% 30.09 in 10.0 mi WNW 9.2 mph - N/A   Clear
6:55 AM 41.0 °F 35.8 °F 33.8 °F 76% 30.09 in 10.0 mi WNW 8.1 mph - N/A   Clear
7:15 AM 41.0 °F 35.2 °F 33.8 °F 76% 30.09 in 10.0 mi West 9.2 mph - N/A   Clear
7:35 AM 42.8 °F 37.5 °F 33.8 °F 70% 30.09 in 10.0 mi WNW 9.2 mph - N/A   Clear
7:55 AM 41.0 °F 35.8 °F 33.8 °F 76% 30.09 in 10.0 mi WNW 8.1 mph - N/A   Clear
8:15 AM 41.0 °F 35.8 °F 33.8 °F 76% 30.09 in 10.0 mi WNW 8.1 mph - N/A   Clear
8:35 AM 42.8 °F 38.0 °F 35.6 °F 76% 30.09 in 10.0 mi West 8.1 mph - N/A   Clear
8:55 AM 46.4 °F 41.9 °F 37.4 °F 71% 30.11 in 10.0 mi WNW 9.2 mph - N/A   Clear
9:15 AM 51.8 °F - 39.2 °F 62% 30.11 in 10.0 mi West 9.2 mph - N/A   Clear
9:35 AM 55.4 °F - 39.2 °F 54% 30.12 in 10.0 mi West 9.2 mph - N/A   Clear
9:55 AM 57.2 °F - 37.4 °F 48% 30.13 in 10.0 mi West 9.2 mph - N/A   Clear
10:15 AM 60.8 °F - 37.4 °F 42% 30.13 in 10.0 mi West 8.1 mph - N/A   Clear
10:35 AM 62.6 °F - 37.4 °F 39% 30.12 in 10.0 mi WSW 8.1 mph - N/A   Clear
10:55 AM 64.4 °F - 35.6 °F 34% 30.12 in 10.0 mi West 8.1 mph - N/A   Clear
11:15 AM 66.2 °F - 33.8 °F 30% 30.11 in 10.0 mi WSW 6.9 mph - N/A   Clear
11:35 AM 66.2 °F - 33.8 °F 30% 30.11 in 10.0 mi SW 4.6 mph - N/A   Clear
11:55 AM 66.2 °F - 33.8 °F 30% 30.10 in 10.0 mi WSW 6.9 mph - N/A   Clear
12:15 PM 68.0 °F - 33.8 °F 28% 30.09 in 10.0 mi SSW 8.1 mph - N/A   Clear
12:35 PM 69.8 °F - 33.8 °F 27% 30.08 in 10.0 mi SSW 13.8 mph - N/A   Clear
12:55 PM 71.6 °F - 33.8 °F 25% 30.07 in 10.0 mi SW 12.7 mph 17.3 mph N/A   Clear
1:15 PM 71.6 °F - 33.8 °F 25% 30.06 in 10.0 mi WSW 6.9 mph 16.1 mph N/A   Clear
1:35 PM 71.6 °F - 33.8 °F 25% 30.05 in 10.0 mi South 11.5 mph 16.1 mph N/A   Clear
1:55 PM 73.4 °F - 33.8 °F 23% 30.03 in 10.0 mi SSW 12.7 mph - N/A   Clear
2:15 PM 73.4 °F - 33.8 °F 23% 30.02 in 9.0 mi SSW 10.4 mph 21.9 mph N/A   Clear
2:35 PM 75.2 °F - 35.6 °F 24% 30.00 in 10.0 mi SW 17.3 mph 20.7 mph N/A   Clear
2:55 PM 75.2 °F - 35.6 °F 24% 29.99 in 10.0 mi SW 15.0 mph 21.9 mph N/A   Clear
3:15 PM 75.2 °F - 35.6 °F 24% 29.97 in 10.0 mi SSW 16.1 mph 21.9 mph N/A   Clear
3:35 PM 77.0 °F - 35.6 °F 22% 29.96 in 10.0 mi SW 16.1 mph 26.5 mph N/A   Clear
3:55 PM 77.0 °F - 35.6 °F 22% 29.96 in 10.0 mi SSW 16.1 mph 25.3 mph N/A   Clear
4:15 PM 77.0 °F - 35.6 °F 22% 29.95 in 10.0 mi SSW 11.5 mph 21.9 mph N/A   Clear
4:35 PM 77.0 °F - 37.4 °F 24% 29.94 in 10.0 mi SW 15.0 mph 24.2 mph N/A   Clear
4:55 PM 78.8 °F - 37.4 °F 23% 29.93 in 10.0 mi SSW 15.0 mph 23.0 mph N/A   Clear
5:15 PM 77.0 °F - 37.4 °F 24% 29.93 in 10.0 mi SW 16.1 mph - N/A   Clear
5:35 PM 77.0 °F - 37.4 °F 24% 29.92 in 10.0 mi SSW 13.8 mph 19.6 mph N/A   Clear
5:55 PM 77.0 °F - 37.4 °F 24% 29.91 in 10.0 mi SSW 16.1 mph 19.6 mph N/A   Clear
6:15 PM 75.2 °F - 37.4 °F 25% 29.90 in 10.0 mi SSW 15.0 mph - N/A   Clear
6:35 PM 75.2 °F - 37.4 °F 25% 29.91 in 10.0 mi SSW 12.7 mph - N/A   Clear
6:55 PM 71.6 °F - 35.6 °F 27% 29.91 in 10.0 mi SSW 8.1 mph - N/A   Clear
7:15 PM 68.0 °F - 35.6 °F 30% 29.91 in 10.0 mi South 8.1 mph - N/A   Clear
7:35 PM 64.4 °F - 35.6 °F 34% 29.91 in 10.0 mi South 8.1 mph - N/A   Clear
7:55 PM 64.4 °F - 37.4 °F 37% 29.92 in 10.0 mi SSE 5.8 mph - N/A   Clear
8:15 PM 62.6 °F - 35.6 °F 37% 29.92 in 10.0 mi SSE 8.1 mph - N/A   Clear
8:35 PM 60.8 °F - 35.6 °F 39% 29.93 in 10.0 mi SSE 8.1 mph - N/A   Clear
8:55 PM 60.8 °F - 37.4 °F 42% 29.94 in 10.0 mi SE 9.2 mph - N/A   Clear
9:15 PM 60.8 °F - 37.4 °F 42% 29.94 in 10.0 mi SSE 9.2 mph - N/A   Clear
9:35 PM 60.8 °F - 37.4 °F 42% 29.94 in 10.0 mi SSE 9.2 mph - N/A   Clear
9:55 PM 59.0 °F - 37.4 °F 45% 29.93 in 10.0 mi SSE 9.2 mph - N/A   Clear
10:15 PM 57.2 °F - 37.4 °F 48% 29.94 in 10.0 mi SSE 6.9 mph - N/A   Clear
10:35 PM 55.4 °F - 37.4 °F 51% 29.93 in 10.0 mi South 8.1 mph - N/A   Clear
10:55 PM 53.6 °F - 37.4 °F 54% 29.93 in 10.0 mi South 10.4 mph - N/A   Clear
11:15 PM 55.4 °F - 37.4 °F 51% 29.93 in 10.0 mi South 10.4 mph - N/A   Clear
11:35 PM 55.4 °F - 37.4 °F 51% 29.94 in 10.0 mi South 9.2 mph - N/A   Clear
11:55 PM 53.6 °F - 37.4 °F 54% 29.93 in 10.0 mi South 8.1 mph - N/A   Clear